Regional Weather Roundup
Issued by NWS

Home | Current Version | Previous Version | Graphics & Text | Print | Product List | Glossary On
Versions: 1 2 3 4 5 6 7 8 9 10 11 12 13 14 15 16 17 18 19 20 21 22 23 24 25 26 27
000
ASUS45 KSLC 191610
RWRUT

UTAH REGIONAL WEATHER ROUNDUP
NATIONAL WEATHER SERVICE SALT LAKE CITY UT
900 AM MST SUN NOV 19 2017

UTZ001>011-023>025-191700-

NORTHERN UTAH

CITY           SKY/WX    TMP DP  RH WIND       PRES   REMARKS
BRIGHAM CITY   MOSUNNY   27  24  85 CALM      30.32R
HILL AFB       MOSUNNY   27  16  65 E14       30.28R WCI  15
LOGAN          MOSUNNY   26  21  81 CALM      30.30R
OGDEN          MOSUNNY   28  19  69 S6        30.29R WCI  22
SALT LAKE CITY PTSUNNY   34  25  69 S5        30.29R WCI  30
TOOELE VALLEY  MOSUNNY   32  27  80 S3        30.29S
WENDOVER       CLOUDY    27  21  78 CALM      30.30R
HEBER CITY       N/A     23  19  86 CALM      30.28R
WEST JORDAN    MOSUNNY   32  26  78 CALM      30.29R

$$

UTZ011>015-024>027-191700-

CENTRAL/NORTHEAST UTAH

CITY           SKY/WX    TMP DP  RH WIND       PRES   REMARKS
PROVO AIRPORT  PTSUNNY   32  22  66 CALM      30.31R
MOAB/CANYONLAN PTSUNNY   33  15  47 SE8       30.36S WCI  26
DELTA          PTSUNNY   25  19  80 CALM      30.30R
PRICE          PTSUNNY   26   8  46 CALM      30.34R
RICHFIELD      SUNNY     23  21  93 CALM      30.33R
ROOSEVELT      CLOUDY    27  14  59 CALM      30.37S
VERNAL         CLOUDY    26  12  55 CALM      30.34S

$$

UTZ013>016-019>022-027-191700-

SOUTHERN UTAH

CITY           SKY/WX    TMP DP  RH WIND       PRES   REMARKS
BRYCE CANYON   MOSUNNY   23   9  55 W3        30.32R
CEDAR CITY     MOSUNNY   24  20  84 CALM      30.26R
MILFORD        PTSUNNY   19  14  81 S7        30.29R WCI  10
ST GEORGE      MOSUNNY   35  10  35 CALM      30.31R
HANKSVILLE     PTSUNNY   25   5  42 CALM      30.42R
KANAB          SUNNY     39   9  28 NW13      30.35R WCI  32
BLANDING         N/A     33   7  33 CALM      30.43S

$$

REGIONAL REPORTS     COLORADO/ARIZONA

CITY           SKY/WX    TMP DP  RH WIND       PRES   REMARKS
CRAIG, CO      CLOUDY    18  13  80 W3        30.32S
GRAND JUNCTION CLOUDY    29  18  63 SE7       30.39R WCI  22
RIFLE, CO      CLOUDY    21  16  81 CALM      30.39F
MONTROSE, CO   CLOUDY    25  16  68 VRB3      30.40S
CORTEZ, CO     CLOUDY    26  14  60 CALM      30.37R
COLORADO CITY    N/A     43   9  24 S6        30.30R
PAGE, AZ       MOSUNNY   35   8  32 CALM      30.36R
GRAND CANYON   MOSUNNY   41   3  20 E7        30.29S
KINGMAN, AZ    MOSUNNY   44   8  23 NE6       30.21R
FLAGSTAFF, AZ  MOSUNNY   32   4  30 N3        30.30R

$$

REGIONAL REPORTS    NEVADA/IDAHO/WYOMING

CITY           SKY/WX    TMP DP  RH WIND       PRES   REMARKS
LAS VEGAS, NV  MOSUNNY   47  13  25 W3        30.23R
ELY, NY        MOSUNNY   21   2  43 SE10      30.25S WCI  10
ELKO, NV       SUNNY     22  17  81 E3        30.26R
POCATELLO, ID  CLOUDY    26  22  84 CALM      30.26R
BURLEY, ID     MOSUNNY   26  21  81 E7        30.22R WCI  18
FORT BRIDGER,    N/A     15  14  99 CALM      30.26F
EVANSTON, WY   CLOUDY    20  14  77 S3        30.23R
ROCK SPRINGS,  CLOUDY    15  10  80 SW6       30.24R WCI   6

$$




USA.gov is the U.S. government's official web portal to all federal, state and local government web resources and services.